Location: Boiro
(42.6475°N, 8.8834°W)
Time: 02:48:41
(UTC+02:00)

deb Kosmos-2237 - Visible Passes

Search period start: 01 July 2022 00:00
Search period end: 11 July 2022 00:00
Orbit: 839 x 1072 km, 71.0° (Epoch: 30 June)

Date Brightness Start Highest point End Pass type
(mag) Time Alt. Az. Time Alt. Az. Time Alt. Az.
01 Jul ? 04:11:12 16° SSE 04:15:22 29° E 04:21:03 10° NE visible
01 Jul ? 05:55:27 13° SW 06:01:35 56° WNW 06:08:18 10° NNE visible
02 Jul ? 04:30:38 23° SSE 04:34:42 48° ESE 04:41:13 10° NE visible
02 Jul ? 06:15:14 10° WSW 06:21:28 36° NW 06:27:41 10° N visible
03 Jul ? 03:05:48 10° ESE 03:08:43 13° E 03:11:37 10° ENE visible
03 Jul ? 04:50:01 26° SSW 04:54:11 78° ESE 05:01:03 10° NNE visible
04 Jul ? 03:25:08 18° SE 03:27:50 23° E 03:33:01 10° NE visible
04 Jul ? 05:09:22 23° SW 05:13:51 67° WNW 05:20:40 10° NNE visible
05 Jul ? 03:44:27 29° SSE 03:47:07 39° ESE 03:53:21 10° NE visible
05 Jul ? 05:28:41 17° WSW 05:33:40 42° WNW 05:40:06 10° NNE visible
06 Jul ? 04:03:44 37° S 04:06:33 65° ESE 04:13:18 10° NNE visible
06 Jul ? 05:47:58 10° WSW 05:53:39 28° NW 05:59:22 10° N visible
07 Jul ? 02:38:45 18° ESE 02:40:19 19° E 02:44:49 10° NE visible
07 Jul ? 04:22:59 35° SSW 04:26:08 80° WNW 04:32:58 10° NNE visible
07 Jul ? 06:09:14 10° W 06:13:49 18° NW 06:18:22 10° N visible
08 Jul ? 02:57:58 29° SE 02:59:33 32° ESE 03:05:26 10° NE visible
08 Jul ? 04:42:11 26° WSW 04:45:53 50° WNW 04:52:28 10° NNE visible
08 Jul ? 06:31:35 10° WNW 06:34:12 12° NW 06:36:48 10° NNW visible
09 Jul ? 03:17:08 43° SSE 03:18:55 54° ESE 03:25:30 10° NNE visible
09 Jul ? 05:01:22 17° WSW 05:05:48 32° NW 05:11:48 10° N visible
10 Jul ? 01:52:04 15° ESE 01:52:49 15° E 01:56:25 10° ENE visible
10 Jul ? 03:36:17 48° SSW 03:38:27 86° ESE 03:45:16 10° NNE visible
10 Jul ? 05:20:49 10° W 05:25:53 22° NW 05:30:55 10° N visible
